Location: Ilhas Acapori
(2.6833°S, 66.1333°W)
Time: 14:08:34
(UTC+00:00)

Daily predictions for brighter satellites

Satellite Brightness Start Highest point End
(mag) Time Altitude Azimuth Time Altitude Azimuth Time Altitude Azimuth
AQUARIUS 4.3 22:29:55 10° S 22:34:25 81° WSW 22:38:54 10° NNW
BLOCK DM-SL R/B 3.8 22:24:03 10° W 22:36:48 71° N 22:40:53 10° E
Cosmos 1455 3.3 22:36:59 10° SSE 22:40:10 25° E 22:43:20 10° NE
Okean 1-7 Rocket 4.3 22:38:26 10° NNE 22:42:26 33° E 22:46:30 10° SSE
Hubble Space Telescope 2.5 22:39:19 10° W 22:42:45 25° NNW 22:46:09 10° NNE
CZ-2C R/B 3.9 22:38:17 10° N 22:43:28 46° WNW 22:48:32 10° SSW
Cosmos 2056 Rocket 4.2 22:38:53 10° SSE 22:43:30 32° ESE 22:48:02 10° NE
Ariane H10+ 3.5 22:43:09 10° WSW 22:47:33 65° S 23:13:08 13° E
Ariane H10+ 3.5 22:43:09 10° WSW 22:47:33 65° S 23:13:09 13° E
Ariane H10+ 3.5 22:43:09 10° WSW 22:47:33 65° S 23:13:06 13° E
Cosmos 2228 3.3 22:44:52 10° SSE 22:49:00 44° E 22:53:08 10° NNE
Meteor 2-10 Rocket 4.1 22:43:31 10° S 22:49:19 72° W 22:54:57 10° N
Cosmos 1892 Rocket 3.9 22:46:03 10° N 22:50:24 72° W 22:54:45 10° S
Ariane H10-3 2.5 22:46:46 10° WNW 22:53:07 39° N 22:55:32 15° ENE
H-2A R/B 3.9 22:50:11 10° SE 22:53:21 19° E 22:56:27 10° NNE
COSMOS 2428 2.9 22:48:04 10° S 22:53:36 53° ESE 22:59:05 10° NNE
MOS 1-B 4.4 22:49:49 10° SSE 22:55:38 89° ENE 23:01:26 10° NNW
Kakehashi 4.3 22:54:11 10° WSW 23:00:01 83° NNW 23:11:50 13° NE
Cosmos 2100 Rocket 4.4 22:54:43 10° SSE 23:00:28 39° E 23:06:14 10° NNE
H-2A R/B 2.0 22:56:05 10° SSE 23:01:18 84° ENE 23:06:38 10° N
Iridium 4 Rocket 3.7 22:56:09 10° N 23:01:28 86° W 23:07:15 10° S
Lacrosse 5 1.8 22:59:22 10° SSW 23:04:29 88° ESE 23:09:34 10° NNE
Cosmos 2123 Rocket 3.9 22:58:33 10° N 23:04:47 73° E 23:10:59 10° S
Intelsat 5-3 Rocket 3.1 23:05:51 10° NNW 23:06:56 15° NNE 23:06:56 15° NNE
Cosmos 482 Debris 3.4 23:06:36 10° NNW 23:10:11 57° NE 23:11:14 30° ESE
YAOGAN 1 3.5 23:07:02 10° SE 23:10:37 26° E 23:14:11 10° NNE
GPS 2-14 Rocket1 2.9 23:08:10 10° WNW 23:12:06 65° SSW 23:14:40 20° ESE
Cosmos 292 Rocket 3.7 23:08:34 10° S 23:13:23 82° ESE 23:18:11 10° NNE
Cosmos 1626 Rocket 3.6 23:09:41 10° N 23:13:55 55° E 23:18:11 10° SSE
Cosmos 2173 Rocket 4.1 23:08:13 10° SSE 23:14:05 50° E 23:19:59 10° NNE
Cosmos 1371 Rocket 4.0 23:09:35 10° SSW 23:14:57 90° W 23:20:15 10° NNE
Ariane V96 H10-3 3.9 23:17:25 10° NW 23:19:27 17° N 23:19:29 17° N
Delta 128 3.7 23:15:02 10° WNW 23:19:30 76° SSW 23:22:53 19° SE
Delta 168 3.3 23:19:13 10° W 23:22:25 43° NNW 23:23:59 28° NNE
Cosmos 1606 Rocket 3.6 23:18:29 10° S 23:22:57 84° W 23:27:24 10° N
Cosmos 1624 Rocket 4.1 23:19:31 10° SSW 23:24:46 79° WNW 23:30:01 10° N
Cosmos 2219 Rocket 3.2 23:20:58 10° SSW 23:26:17 47° WNW 23:31:36 10° N
Feng Yun 1-1 Rocket 4.2 23:21:30 10° SSE 23:26:48 56° ENE 23:32:10 10° N
SWIFT 4.4 23:24:57 10° NNW 23:26:24 13° N 23:26:24 13° N
ARIANE 44L R/B 3.4 23:28:22 10° WNW 23:30:57 38° N 23:32:21 31° NE
Cosmos 1980 4.1 23:27:19 10° S 23:32:32 38° ESE 23:33:09 37° E
Cosmos 2333 Rocket 4.1 23:28:13 10° SW 23:33:02 29° WNW 23:37:53 10° NNW
VEP-3 3.5 23:23:51 10° SW 23:33:03 43° SSE 23:35:32 28° ESE
Cosmos 1607 4.3 23:27:13 10° NNW 23:33:15 65° WSW 23:39:16 10° SSE
Cosmos 2237 Rocket 2.7 23:29:02 10° S 23:34:12 36° ESE 23:34:28 36° E
Okean O Rocket 2.7 23:30:49 10° S 23:34:58 45° WSW 23:39:05 10° NNW
PSLV R/B 3.8 23:33:09 22° N 23:35:41 84° WNW 23:39:47 10° SSW
Spot 2 3.7 23:32:50 10° SSE 23:36:53 80° ENE 23:40:55 10° N
ARGOS 3.3 23:31:42 10° S 23:37:04 73° WSW 23:42:25 10° NNW
H-2A R/B 4.5 23:35:41 10° NNW 23:39:00 22° WNW 23:42:24 10° SW
Cosmos 972 Rocket 4.3 23:41:23 10° N 23:47:33 60° E 23:53:03 10° SSE
CZ-4C R/B 3.9 23:46:52 10° WSW 23:50:04 20° WNW 23:53:21 10° NNW
